Regional Weather Roundup
Issued by NWS

Home | Current Version | Previous Version | Text Only | Print | Product List | Glossary On
Versions: 1 2 3 4 5 6 7 8 9 10 11 12 13 14 15 16 17 18 19 20 21 22 23 24 25 26 27 28 29 30 31 32 33 34 35 36 37 38 39 40 41 42 43 44 45 46 47 48 49 50
000
ASUS43 KLSX 171607
RWRMO

WEATHER SUMMARY FOR MISSOURI
NATIONAL WEATHER SERVICE SPRINGFIELD MO
1100 AM CDT THU APR 17 2014

NOTE: "FAIR" INDICATES FEW OR NO CLOUDS BELOW 12,000 FEET WITH NO
       SIGNIFICANT WEATHER AND/OR OBSTRUCTIONS TO VISIBILITY.
       CURRENT SKY AND/OR WEATHER CONDITIONS ARE NOT AVAILABLE FOR
       CHILLICOTHE AND FARMINGTON.

MOZ001>031-035>038-043-044-053-054-171700-
...NORTHERN AND WESTERN MISSOURI...

CITY           SKY/WX    TMP DP  RH WIND       PRES   REMARKS
KANSAS CTY INT CLOUDY    40  30  67 N8        30.30R
KANSAS C DTWN  CLOUDY    42  30  62 N12       30.30R
LEE`S SUMMIT   CLOUDY    41  31  67 N15       30.29R
ST JOSEPH      CLOUDY    40  29  64 N13       30.32R
CHILLICOTHE      N/A     40  30  67 NW6       30.32R
KIRKSVILLE     CLOUDY    42  32  67 NW8       30.29R

$$
MOZ066>068-077>081-088>096-101>105-171700-
...SOUTHWEST MISSOURI...

CITY           SKY/WX    TMP DP  RH WIND       PRES   REMARKS
SPRINGFIELD    MOSUNNY   56  34  43 SW10      30.25R
JOPLIN         PTSUNNY   52  38  58 VRB5      30.26R

$$
MOZ032>034-039>042-045>050-055>058-069>072-171700-
...CENTRAL MISSOURI...

CITY           SKY/WX    TMP DP  RH WIND       PRES   REMARKS
COLUMBIA       PTSUNNY   50  38  63 N8        30.27R
JEFFERSON CITY PTSUNNY   49  37  63 W8        30.27R
ROLLA          CLOUDY    52  34  50 W9        30.25R
SEDALIA        CLOUDY    45  37  73 N8        30.29R
WHITEMAN AFB   PTSUNNY   42  32  68 N9        30.29R
OSAGE BEACH    CLOUDY    52  36  54 W5        30.28R

$$
MOZ051-052-059>065-171700-
...EAST CENTRAL MISSOURI...

CITY           SKY/WX    TMP DP  RH WIND       PRES   REMARKS
ST LOUIS INTL  CLOUDY    59  34  39 S7        30.26R
SPIRIT OF STL  CLOUDY    57  35  43 W8        30.26R
ST CHARLES     CLOUDY    54  35  48 S5        30.26R

$$
MOZ072>076-082>087-097>100-106>115-171700-
...SOUTH CENTRAL AND SOUTHEAST MISSOURI...

CITY           SKY/WX    TMP DP  RH WIND       PRES   REMARKS
CAPE GIRARDEAU SUNNY     60  39  45 S7        30.31S
FARMINGTON     PTSUNNY   61  36  39 S9        30.29R
POPLAR BLUFF   SUNNY     59  36  42 SW7       30.29S
WEST PLAINS    MOSUNNY   58  35  42 S8        30.27R

$$



USA.gov is the U.S. government's official web portal to all federal, state and local government web resources and services.